Stations météo

réclame
Mon MeteoGroup
Celle, Allemagne (10343): Température de l'air & dewpoint: 14.11.2018 13:00:00 - 20.11.2018 13:00:00 (CET)Celle, Allemagne (10343): Vitesse du vent & gusts: 14.11.2018 13:00:00 - 20.11.2018 13:00:00 (CET)Celle, Allemagne (10343): Direction du vent: 14.11.2018 13:00:00 - 20.11.2018 13:00:00 (CET)Celle, Allemagne (10343): reduced air pressure: 14.11.2018 13:00:00 - 20.11.2018 13:00:00 (CET)Celle, Allemagne (10343): visibility: 14.11.2018 13:00:00 - 20.11.2018 13:00:00 (CET)
Date & Time tt [°C] td [°C] ff [km/h] ff [knt] fx [km/h] fx [knt] dd ppp [hPa] vv [km]
20.11.2018 13:00:00 - - - - - - - - -
20.11.2018 12:00:00 2,8 -1,6 29 16 50 27 ENE 1016,1 12
20.11.2018 11:00:00 2,8 -2,1 29 16 50 27 ENE 1016,8 14
20.11.2018 10:00:00 2,5 -2,0 29 16 - - E 1017,5 17
20.11.2018 09:00:00 2,4 -1,9 25 14 47 25 ENE 1017,7 15
20.11.2018 08:00:00 2,4 -1,7 25 14 - - ENE 1017,9 14
20.11.2018 07:00:00 2,5 -1,6 25 14 - - ENE 1017,8 24
20.11.2018 06:00:00 3,0 -1,7 32 18 58 31 E 1017,9 25
20.11.2018 05:00:00 3,2 -1,0 32 18 47 25 ENE 1017,9 25
20.11.2018 04:00:00 3,0 0,8 22 12 - - ENE 1018,3 15
20.11.2018 03:00:00 3,7 0,0 25 14 - - E 1018,8 25
20.11.2018 02:00:00 3,2 0,5 21 11 - - ENE 1019,7 10
20.11.2018 01:00:00 2,9 0,2 29 16 - - ENE 1020,3 25
20.11.2018 00:00:00 3,5 -0,3 25 14 - - ENE 1021,0 25
19.11.2018 23:00:00 3,3 -0,5 25 14 - - ENE 1021,2 30
19.11.2018 22:00:00 3,8 -0,7 29 16 - - ENE 1021,6 30
19.11.2018 21:00:00 4,0 0,3 29 16 - - ENE 1021,6 30
19.11.2018 20:00:00 4,3 0,5 29 16 50 27 ENE 1021,6 10
19.11.2018 19:00:00 4,6 0,0 21 11 - - ENE 1021,6 10
19.11.2018 18:00:00 4,7 0,0 29 16 47 25 ENE 1021,5 30
19.11.2018 17:00:00 4,1 0,8 22 12 - - E 1021,6 10
19.11.2018 16:00:00 5,2 1,1 25 14 - - NE 1021,6 20
19.11.2018 15:00:00 5,2 1,4 25 14 - - NE 1021,8 27
19.11.2018 14:00:00 5,1 1,9 22 12 47 25 ENE 1022,0 25
19.11.2018 13:00:00 5,5 0,6 22 12 - - ENE 1022,3 10
19.11.2018 12:00:00 5,1 1,5 18 10 - - NE 1023,3 20
19.11.2018 11:00:00 5,3 1,7 22 12 - - NE 1023,5 25
19.11.2018 10:00:00 5,2 1,9 22 12 - - NE 1023,8 25
19.11.2018 09:00:00 5,1 2,1 18 10 - - NNE 1023,8 25
19.11.2018 08:00:00 5,0 2,4 18 10 - - NE 1024,0 25
19.11.2018 07:00:00 5,1 2,5 18 10 - - NE 1024,2 30
19.11.2018 06:00:00 5,3 2,7 18 10 - - NE 1024,5 30
19.11.2018 05:00:00 5,2 2,7 18 10 - - NNE 1024,6 30
19.11.2018 04:00:00 5,6 3,1 18 10 - - NNE 1025,1 25
19.11.2018 03:00:00 5,5 3,3 14 8 - - NNE 1025,8 25
19.11.2018 02:00:00 5,3 3,5 14 8 - - NNE 1026,4 25
19.11.2018 01:00:00 4,7 3,4 14 8 - - NNE 1027,0 25
19.11.2018 00:00:00 4,9 3,0 14 8 - - NNE 1027,6 25
18.11.2018 23:00:00 4,8 3,2 14 8 - - NNE 1027,9 25
18.11.2018 22:00:00 4,9 3,0 18 10 - - NNE 1028,4 8
18.11.2018 21:00:00 5,0 3,4 18 10 - - NNE 1028,8 8
18.11.2018 20:00:00 5,0 3,5 14 8 - - NNE 1028,8 6
18.11.2018 19:00:00 4,9 3,2 18 10 - - NE 1029,0 6
18.11.2018 18:00:00 4,6 2,6 13 7 - - NNE 1029,2 7
18.11.2018 17:00:00 4,8 2,5 14 8 - - NE 1029,9 6
18.11.2018 16:00:00 6,0 -0,1 11 6 - - NNE 1030,0 25
18.11.2018 15:00:00 6,3 -1,3 18 10 - - NNE 1030,3 30
18.11.2018 14:00:00 6,5 -7,5 14 8 - - NE 1031,3 30
18.11.2018 13:00:00 4,9 -4,0 7 4 - - NNE 1032,3 18
18.11.2018 12:00:00 2,8 -3,7 7 4 - - NE 1033,1 12
18.11.2018 11:00:00 0,1 -3,6 7 4 - - ENE 1033,8 12
18.11.2018 10:00:00 -0,6 -3,7 7 4 - - ENE 1034,1 14
18.11.2018 09:00:00 -2,7 -4,0 4 2 - - SSE 1034,0 12
18.11.2018 08:00:00 -2,8 -4,1 7 4 - - NNE 1034,5 12
18.11.2018 07:00:00 -2,7 -4,2 4 2 - - NE 1034,3 15
18.11.2018 06:00:00 -2,5 -4,4 7 4 - - ENE 1035,1 15
18.11.2018 05:00:00 -2,0 -4,1 7 4 - - ENE 1034,9 20
18.11.2018 04:00:00 -1,3 -3,9 14 8 - - NE 1035,3 20
18.11.2018 03:00:00 -1,1 -4,1 11 6 - - NE 1035,9 20
18.11.2018 02:00:00 -0,8 -4,1 7 4 - - NE 1035,9 20
18.11.2018 01:00:00 -0,3 -4,1 7 4 - - E 1036,2 20
18.11.2018 00:00:00 0,0 -4,1 7 4 - - E 1036,3 15
17.11.2018 23:00:00 -0,1 -3,2 7 4 - - E 1036,4 15
17.11.2018 22:00:00 1,1 -2,3 11 6 - - E 1036,4 15
17.11.2018 21:00:00 2,4 -1,9 18 10 - - E 1036,4 15
17.11.2018 20:00:00 2,2 -1,2 14 8 - - ENE 1036,3 15
17.11.2018 19:00:00 2,6 -0,6 14 8 - - NE 1036,4 15
17.11.2018 18:00:00 3,0 -0,5 14 8 - - NE 1036,7 13
17.11.2018 17:00:00 3,7 -0,2 14 8 - - ENE 1036,5 7
17.11.2018 16:00:00 5,0 -0,1 14 8 - - ENE 1036,3 7
17.11.2018 15:00:00 5,3 0,3 14 8 - - ENE 1036,0 5
17.11.2018 14:00:00 5,0 -0,9 18 10 - - E 1036,3 5
17.11.2018 13:00:00 4,0 0,7 14 8 - - E 1037,0 5
17.11.2018 12:00:00 2,7 0,1 18 10 - - E 1037,1 6
17.11.2018 11:00:00 2,1 0,0 18 10 - - E 1037,4 6
17.11.2018 10:00:00 1,3 0,0 18 10 - - E 1037,4 5
17.11.2018 09:00:00 0,9 -0,3 18 10 - - ENE 1036,8 5
17.11.2018 08:00:00 0,6 -0,4 14 8 - - E 1036,0 5
17.11.2018 07:00:00 0,8 -0,4 14 8 - - E 1035,6 6
17.11.2018 06:00:00 1,1 -0,3 18 10 - - E 1035,4 10
17.11.2018 05:00:00 1,4 -0,2 18 10 - - ENE 1035,5 12
17.11.2018 04:00:00 1,6 -0,1 14 8 - - E 1035,4 15
17.11.2018 03:00:00 1,8 -0,1 14 8 - - E 1035,2 20
17.11.2018 02:00:00 2,3 0,1 14 8 - - E 1035,1 20
17.11.2018 01:00:00 2,5 0,4 14 8 - - E 1034,9 20
17.11.2018 00:00:00 2,9 0,7 14 8 - - E 1034,9 20
16.11.2018 23:00:00 3,4 0,9 14 8 - - E 1034,8 20
16.11.2018 22:00:00 4,0 1,3 18 10 - - E 1034,7 12
16.11.2018 21:00:00 4,4 1,6 14 8 - - E 1034,1 12
16.11.2018 20:00:00 4,8 1,9 14 8 - - E 1034,1 12
16.11.2018 19:00:00 5,4 2,2 14 8 - - ENE 1033,9 15
16.11.2018 18:00:00 6,1 1,8 14 8 - - E 1033,2 15
16.11.2018 17:00:00 6,6 2,1 11 6 - - ENE 1033,0 15
16.11.2018 16:00:00 8,2 1,8 18 10 - - E 1032,6 17
16.11.2018 15:00:00 9,2 1,9 22 12 - - E 1032,4 17
16.11.2018 14:00:00 8,7 3,1 18 10 - - E 1032,3 15
16.11.2018 13:00:00 8,4 3,7 14 8 - - E 1032,5 15
16.11.2018 12:00:00 6,9 3,8 11 6 - - E 1032,3 14
16.11.2018 11:00:00 5,2 3,0 14 8 - - E 1032,6 10
16.11.2018 10:00:00 3,6 2,6 14 8 - - E 1032,3 7
16.11.2018 09:00:00 2,2 1,8 11 6 - - E 1032,2 4,8
16.11.2018 08:00:00 1,4 1,1 11 6 - - E 1031,6 3,5
16.11.2018 07:00:00 1,7 1,4 11 6 - - ENE 1030,9 4,3
16.11.2018 06:00:00 2,0 1,7 11 6 - - E 1030,6 4,0
16.11.2018 05:00:00 2,0 1,6 11 6 - - E 1030,5 3,0
16.11.2018 04:00:00 2,3 2,0 7 4 - - E 1030,2 3,5
16.11.2018 03:00:00 2,6 2,3 14 8 - - E 1029,8 2,2
16.11.2018 02:00:00 2,3 2,0 11 6 - - ENE 1029,9 1,5
16.11.2018 01:00:00 2,3 2,0 7 4 - - NE 1029,6 2,2
16.11.2018 00:00:00 2,4 2,1 7 4 - - E 1029,5 5
15.11.2018 23:00:00 2,2 2,0 7 4 - - NE 1029,3 5
15.11.2018 22:00:00 1,8 1,6 8 4 - - ENE 1029,0 5
15.11.2018 21:00:00 1,9 1,6 7 4 - - ENE 1028,8 0,5
15.11.2018 20:00:00 2,3 2,0 4 2 - - ESE 1028,6 0,3
15.11.2018 19:00:00 2,9 2,6 4 2 - - E 1028,4 0,2
15.11.2018 18:00:00 3,4 3,0 7 4 - - E 1028,2 0,2
15.11.2018 17:00:00 4,2 3,5 7 4 - - E 1028,2 3,8
15.11.2018 16:00:00 5,2 4,0 7 4 - - E 1028,2 4,5
15.11.2018 15:00:00 5,1 4,4 11 6 - - ESE 1028,1 4,0
15.11.2018 14:00:00 4,5 4,2 9 5 - - SE 1028,3 0,8
15.11.2018 13:00:00 4,2 3,9 11 6 - - ESE 1028,4 0,4
15.11.2018 12:00:00 3,8 3,6 11 6 - - E 1028,6 0,6
15.11.2018 11:00:00 3,1 2,9 11 6 - - ESE 1028,6 0,3
15.11.2018 10:00:00 2,1 1,9 7 4 - - ESE 1028,9 -
15.11.2018 09:00:00 1,7 1,4 7 4 - - ENE 1028,8 -
15.11.2018 08:00:00 2,3 2,1 5 3 - - E 1028,3 -
15.11.2018 07:00:00 1,9 1,6 4 2 - - SE 1027,8 -
15.11.2018 06:00:00 2,7 2,3 4 2 - - - 1027,8 -
15.11.2018 05:00:00 3,3 2,9 4 2 - - E 1027,9 7
15.11.2018 04:00:00 2,7 2,1 4 2 - - ESE 1028,1 9
15.11.2018 03:00:00 4,5 3,9 4 2 - - ESE 1028,1 10
15.11.2018 02:00:00 4,2 3,5 7 4 - - E 1028,2 10
15.11.2018 01:00:00 5,4 4,4 4 2 - - E 1028,3 20
15.11.2018 00:00:00 6,4 5,0 4 2 - - N 1028,7 20
14.11.2018 23:00:00 6,4 4,9 7 4 - - SSE 1028,8 20
14.11.2018 22:00:00 7,7 5,6 11 6 - - SSE 1028,6 25
14.11.2018 21:00:00 8,5 5,8 11 6 - - S 1028,8 25
14.11.2018 20:00:00 9,6 6,8 7 4 - - S 1028,7 25
14.11.2018 19:00:00 9,7 7,1 7 4 - - SSE 1028,5 25
14.11.2018 18:00:00 9,4 6,7 7 4 - - S 1028,5 25
14.11.2018 17:00:00 10,7 7,3 7 4 - - SE 1028,6 25
14.11.2018 16:00:00 12,7 6,7 4 2 - - SW 1028,8 25
14.11.2018 15:00:00 13,0 6,7 11 6 - - SW 1028,8 25
14.11.2018 14:00:00 12,7 6,9 11 6 - - SW 1028,7 25
14.11.2018 13:00:00 12,3 7,4 14 8 - - SW 1029,0 25

tt = Température de l'air
td = dewpoint
ff = Vitesse du vent
fx = gusts
dd = Direction du vent
ppp = reduced air pressure
vv = visibility

stations d'obs. à proximité